Vorticity
4 6 10 15 18 20 25 33 36 32 22 16 11 5 -0 0 3 6 6 2 -2 -5 -4 3 9 15 19 19 17 15 13 11 10 8 6 5 4 3 2 3 4 5 6 5 4 3 4 4 5 5 4 5 5 6 7 7 7 8 7 7 6 6 6 6 6 7 8 9 10 12 13 14 15 15 16 16 16 15 15 15 14 14 13 13 12 12
6 8 11 15 16 18 20 21 17 10 2 -3 -6 -6 -1 4 8 10 9 5 1 -1 -1 3 7 11 14 13 11 9 7 6 6 5 5 5 5 5 5 5 4 4 3 3 3 3 4 5 5 6 6 6 7 7 7 7 6 6 5 5 5 6 7 8 9 10 11 12 13 14 14 15 15 15 15 14 14 13 13 12 12 11 11 11 10 10
8 9 11 10 7 5 4 2 -3 -11 -18 -19 -13 -4 7 10 12 11 11 10 8 8 8 9 9 9 11 9 7 5 4 4 4 5 5 5 5 5 5 4 4 3 3 4 4 5 6 6 6 6 6 6 6 6 5 5 5 6 6 7 8 9 10 11 12 13 13 13 13 13 13 13 12 12 12 12 11 11 11 10 10 10 9 9 9 9
9 10 10 6 -1 -9 -16 -18 -21 -24 -25 -16 -5 7 14 14 12 10 10 11 12 13 13 12 11 10 9 8 6 5 4 4 4 4 4 4 4 4 4 4 4 4 5 6 6 6 6 6 6 5 5 5 5 6 6 7 7 8 9 10 11 11 12 12 12 12 11 11 11 10 10 10 10 10 10 9 9 9 9 9 9 9 9 9 9 9
12 11 11 7 1 -8 -17 -19 -18 -15 -9 1 9 14 15 12 10 9 11 13 14 15 15 13 11 9 8 7 6 5 5 5 4 4 4 4 4 4 4 5 5 6 6 6 5 5 5 5 5 6 6 7 7 8 9 9 10 10 11 11 11 10 10 10 9 9 8 8 8 8 8 8 8 8 8 9 9 9 9 9 10 10 10 10 11 11
13 13 13 11 8 4 0 -1 -0 3 8 13 15 14 11 8 8 8 10 11 11 11 11 10 9 9 8 8 7 7 6 5 4 4 4 4 4 5 5 5 5 5 5 5 5 6 6 7 7 8 8 9 9 10 10 10 10 10 9 9 8 8 7 7 7 6 6 7 7 7 8 8 8 9 9 9 10 11 11 12 12 13 14 14 14 15
14 14 14 13 13 12 12 12 13 14 15 15 12 9 6 4 4 5 5 5 5 6 8 8 9 9 10 9 8 7 6 5 4 4 4 4 5 5 5 6 6 6 6 6 7 7 8 8 8 9 9 9 9 9 8 8 7 7 7 6 6 6 6 6 6 6 7 8 8 9 10 10 11 11 12 13 14 15 15 16 17 17 17 18 18 19
14 14 14 14 14 15 16 16 16 15 14 11 8 6 4 3 3 3 3 4 7 9 10 11 10 9 8 7 6 5 4 4 4 4 5 5 6 6 6 7 7 7 8 8 8 8 8 8 8 8 7 7 6 6 5 5 5 5 5 5 5 6 6 7 8 9 10 11 12 12 13 14 15 16 17 18 19 19 20 20 21 21 21 21 22 22
13 14 14 14 14 15 16 16 14 13 11 8 6 5 4 5 5 6 7 10 12 13 12 11 9 8 6 5 5 5 5 5 5 6 6 7 7 7 7 7 7 7 7 7 7 7 7 6 6 5 5 5 4 4 4 5 5 5 6 7 7 8 9 11 12 13 14 15 16 17 18 19 20 21 22 23 23 24 24 24 24 24 25 25 26 26
12 13 13 14 14 13 13 13 11 10 7 5 4 4 5 6 8 10 13 14 14 13 10 8 7 6 5 6 7 7 7 7 8 8 7 7 7 7 6 6 6 6 6 6 5 5 5 5 5 5 5 5 5 6 6 7 8 9 10 11 12 13 14 16 17 18 19 21 22 23 23 24 25 26 26 27 27 27 27 28 28 28 28 28 28 28
12 12 13 13 13 12 10 9 7 6 5 5 7 10 12 13 13 13 13 13 11 9 8 7 7 7 7 8 8 8 8 8 7 7 7 6 6 5 5 5 5 5 4 5 5 5 5 6 6 7 8 8 9 10 11 11 12 13 14 16 17 18 20 21 22 24 25 26 27 27 28 29 30 30 30 30 30 30 30 30 30 30 30 29 28 28
12 12 12 11 9 7 5 5 6 8 9 12 14 15 16 15 13 10 9 8 8 7 8 8 9 9 9 8 7 6 6 5 5 4 4 4 4 4 4 4 4 5 5 6 7 8 9 9 10 11 12 13 14 15 15 16 17 18 19 21 22 24 25 26 27 28 29 30 31 32 33 33 33 33 33 33 32 32 31 30 29 28 27 26 25 24
12 10 8 5 4 4 5 8 11 13 14 14 13 11 10 9 7 6 6 7 7 8 8 8 8 8 7 6 5 4 3 3 3 3 3 4 4 5 5 6 7 8 9 10 12 13 13 14 15 16 17 18 18 19 19 20 22 23 24 26 27 29 30 31 32 33 34 35 35 36 36 36 35 35 34 33 31 30 28 27 26 24 23 22 21 20
6 4 3 4 7 10 13 13 12 11 10 8 6 5 5 5 5 6 8 8 8 8 7 6 6 5 4 4 3 2 2 3 3 4 4 5 6 7 8 9 11 12 13 15 16 17 17 18 19 20 21 22 22 23 24 25 27 28 30 31 33 34 35 36 37 38 38 38 38 37 37 35 34 32 30 28 26 25 23 22 21 21 20 19 18 17
3 3 3 6 8 9 9 9 9 9 8 7 6 6 6 7 8 9 9 8 7 6 5 4 3 3 3 3 3 3 3 4 5 6 8 9 10 11 12 14 15 16 18 19 19 20 20 22 23 24 25 26 27 28 29 31 33 34 36 37 38 39 39 40 40 40 39 38 37 35 33 30 28 25 23 22 21 20 20 19 19 18 17 16 15 14
3 4 6 9 11 12 12 11 9 8 7 6 7 7 8 8 8 7 7 5 4 3 3 3 3 3 5 5 5 5 6 7 8 10 11 14 15 15 15 17 19 20 21 22 22 23 25 27 28 29 30 31 32 33 34 36 37 39 40 40 41 41 41 40 39 37 35 33 30 27 25 22 20 19 18 18 18 18 18 18 17 16 15 13 12 11
8 12 16 17 16 14 11 9 7 6 6 6 7 7 7 6 5 5 4 4 4 4 4 4 5 6 8 10 10 10 10 11 13 14 16 18 18 18 18 20 21 23 24 26 27 28 30 32 34 35 35 35 36 37 38 39 40 41 41 41 40 39 37 35 32 29 26 23 21 18 16 15 15 16 16 17 17 17 17 16 15 13 12 11 11 10
22 21 18 14 11 9 7 7 7 7 6 6 6 6 5 5 5 4 4 5 5 6 7 8 9 10 11 13 14 14 14 16 17 18 20 21 21 21 22 24 26 28 29 31 33 35 36 37 37 37 37 37 37 38 39 40 39 39 37 35 33 30 27 24 21 19 16 14 13 12 13 14 15 16 17 18 17 16 15 14 13 11 11 10 10 10
13 10 8 7 7 6 6 6 6 6 5 5 5 5 5 5 5 6 6 7 8 9 10 12 13 14 14 15 15 15 16 17 19 20 22 23 24 25 27 30 33 35 36 37 38 39 39 39 39 38 37 37 37 37 36 35 32 30 27 24 21 19 16 14 12 10 10 10 11 13 14 16 17 18 18 17 16 14 13 12 11 10 10 9 10 10
8 7 7 7 6 6 6 5 5 5 5 6 6 6 6 7 8 9 10 11 12 12 13 14 15 15 15 16 17 17 18 19 22 25 27 28 30 31 33 36 38 39 41 41 41 40 39 37 36 35 35 33 31 29 26 24 21 18 16 14 12 10 8 8 8 9 10 12 14 16 18 18 18 17 16 15 13 12 11 10 9 9 9 9 10 10
8 7 7 6 6 5 5 5 6 6 6 6 7 8 9 10 12 12 13 13 14 14 15 16 17 17 16 18 19 20 21 24 28 32 33 35 37 39 40 40 40 40 40 40 38 36 35 33 30 27 24 22 20 18 15 13 11 10 8 7 7 7 8 9 11 13 15 17 18 19 18 18 16 15 14 12 11 10 9 9 8 8 9 10 10 12
7 6 6 5 5 5 6 6 7 7 7 8 9 10 12 12 13 14 14 14 15 16 17 18 18 19 20 23 24 26 28 33 35 36 36 39 41 42 41 39 39 38 37 33 30 28 26 23 19 16 13 12 10 9 8 7 7 6 6 7 8 10 12 14 16 17 19 19 19 18 17 15 14 13 12 11 10 9 8 8 8 8 9 10 12 13
6 6 6 6 6 6 7 8 8 9 9 10 11 11 11 11 12 12 13 15 16 18 20 21 22 24 27 30 32 34 37 39 39 39 39 40 40 37 33 33 33 32 30 24 20 16 13 10 9 7 6 6 6 6 6 6 7 8 9 11 12 14 16 18 19 20 19 18 17 16 14 13 12 11 10 10 9 8 8 8 8 9 10 11 13 14
6 6 7 7 8 8 9 9 10 10 11 11 12 12 12 13 14 15 16 18 21 23 25 27 30 33 36 36 37 38 39 39 38 38 39 39 35 30 26 25 24 22 18 13 10 8 6 5 5 5 5 6 6 7 8 9 10 11 13 15 17 18 20 20 20 19 18 16 15 14 13 12 11 11 10 9 8 8 8 9 9 10 11 12 14 15
7 7 8 8 9 9 9 10 10 11 11 12 13 15 16 18 20 22 24 27 29 30 31 32 34 35 35 35 35 36 36 35 35 34 34 31 26 21 18 16 15 12 9 6 5 5 5 5 6 7 7 8 9 10 10 12 13 14 16 18 19 20 21 20 19 18 16 15 14 13 12 12 11 10 9 9 8 9 9 10 11 11 12 13 14 15
7 8 8 8 9 9 10 11 11 12 14 15 17 19 21 23 25 27 30 32 33 32 32 33 34 34 31 31 32 32 30 29 29 28 26 21 16 12 9 8 7 7 6 6 6 6 7 8 8 8 9 10 11 12 13 14 15 17 18 19 20 20 20 18 17 15 14 13 13 13 12 11 11 10 9 9 9 10 11 11 12 13 13 14 14 14
8 8 8 9 10 10 12 13 15 17 18 21 23 25 26 27 28 30 32 32 30 29 30 30 30 28 27 27 27 25 21 20 20 18 15 12 9 7 6 5 5 6 7 7 8 8 9 9 9 9 10 11 12 13 14 16 17 18 19 19 19 19 17 16 15 14 13 13 13 12 12 11 10 10 10 10 11 12 12 13 13 13 13 13 13 13
9 9 10 11 13 14 16 18 20 22 24 25 27 28 28 28 29 30 30 27 26 26 27 27 25 22 21 20 18 16 14 14 12 9 6 6 6 6 5 5 6 8 9 9 9 9 9 10 10 10 11 12 13 14 16 17 18 18 19 18 18 16 15 14 13 13 12 12 12 12 11 11 10 10 11 12 12 13 13 13 13 13 13 12 11 10
12 13 14 16 17 19 21 22 24 26 27 28 28 28 28 28 28 27 25 22 21 22 23 21 19 17 15 12 11 10 9 8 6 5 3 5 6 7 7 7 9 10 10 10 10 9 10 10 11 11 11 12 14 15 16 17 17 18 17 16 15 14 13 12 12 12 12 12 12 12 11 11 11 11 12 13 14 14 14 13 13 12 11 10 9 8
16 17 19 20 22 23 24 25 26 27 27 27 26 25 25 25 24 23 19 18 17 17 16 14 12 11 9 8 7 7 7 6 5 4 4 6 8 9 8 10 11 11 11 11 10 9 9 10 11 11 12 13 14 15 16 16 17 16 16 14 13 12 11 11 11 11 11 11 11 11 11 11 12 13 14 14 14 14 14 13 12 12 11 10 9 8
18 19 21 22 23 24 25 25 25 25 25 24 23 22 20 20 19 18 15 14 13 12 11 9 8 8 7 6 6 6 6 6 6 6 6 9 10 10 10 11 12 12 13 12 10 8 7 9 10 12 13 14 14 15 15 15 15 15 14 13 12 11 10 10 10 11 11 11 11 12 12 13 13 14 14 14 14 14 13 13 12 11 10 10 9 9
19 20 21 22 22 23 23 23 23 22 21 20 19 17 16 15 14 13 12 11 10 9 8 8 7 7 7 7 7 7 7 7 7 8 9 11 11 12 12 13 13 13 13 12 10 8 6 8 9 11 13 14 14 14 14 14 14 14 13 12 11 10 10 10 10 10 11 11 12 12 13 14 14 14 14 14 14 13 13 12 11 11 10 10 10 10
19 20 21 21 21 21 21 21 20 18 17 15 14 13 12 12 11 10 10 9 8 8 8 8 8 8 8 9 10 10 10 10 10 11 12 13 13 14 14 15 14 13 12 10 9 8 7 8 10 11 13 14 15 14 14 14 14 13 13 12 11 11 10 10 11 11 11 12 13 13 14 14 15 14 14 14 13 13 12 11 11 10 10 11 11 12
19 20 20 20 20 20 20 18 17 15 13 12 11 11 11 10 10 10 10 9 10 10 10 10 10 10 10 11 12 12 13 13 13 13 14 15 15 15 15 15 14 13 11 9 8 7 8 9 10 12 13 15 15 15 15 14 14 13 13 12 12 11 11 11 12 12 12 13 14 14 15 15 14 14 14 13 13 12 11 11 10 10 11 11 12 13
19 20 20 20 19 19 18 16 14 13 12 11 11 11 10 10 10 11 11 11 12 12 13 13 13 13 13 13 13 14 15 15 15 15 16 17 17 16 16 16 14 12 10 8 7 7 7 9 10 12 13 14 16 16 16 15 15 14 14 14 13 13 12 12 13 13 13 14 14 14 15 14 14 13 13 12 11 10 10 10 10 10 11 12 13 14
20 20 20 19 18 17 15 14 13 12 12 11 11 11 11 12 12 13 13 13 14 14 15 15 16 16 16 15 15 15 15 15 16 16 17 17 17 17 17 15 14 12 10 8 7 7 7 8 10 12 13 14 15 16 16 16 16 15 15 15 14 14 13 13 13 14 14 14 14 14 14 13 13 12 11 10 9 9 9 9 10 11 11 12 13 15
20 20 19 18 16 15 14 13 12 12 12 12 12 13 13 14 14 15 15 15 16 16 16 16 16 16 17 17 16 16 16 16 16 16 17 17 17 17 16 15 13 11 9 8 7 7 7 8 9 11 13 14 15 16 16 16 16 16 16 16 15 15 14 14 14 14 14 14 14 14 13 12 11 10 9 9 8 9 9 10 11 12 12 13 14 15
20 19 17 16 15 14 13 13 13 13 13 13 13 14 14 15 15 16 16 16 16 16 16 16 16 16 16 16 16 16 16 16 16 16 16 16 17 16 16 15 13 11 9 7 7 7 7 8 9 10 12 13 14 15 16 16 16 16 16 16 16 15 15 14 14 14 14 14 14 13 13 12 11 10 9 9 9 10 11 12 13 13 14 15 15 16
18 17 15 15 14 13 13 13 13 13 14 14 15 15 15 16 16 16 16 16 16 16 16 15 15 15 15 15 15 15 15 15 15 15 15 16 16 16 15 14 13 11 9 7 6 6 7 7 8 9 11 12 13 15 16 17 17 17 16 16 16 15 15 14 14 14 14 14 13 13 12 11 10 10 10 10 11 12 13 14 14 15 16 16 16 16
16 15 15 14 14 13 14 14 14 14 15 15 16 16 16 16 16 16 16 16 16 16 16 15 15 15 15 15 15 15 15 15 15 15 15 15 16 16 15 14 12 11 9 8 7 6 6 7 8 9 10 11 12 14 15 16 17 17 17 16 15 15 14 14 14 14 14 13 13 12 11 11 10 10 11 12 13 14 14 15 16 16 17 17 16 16
15 15 14 14 14 14 15 15 15 15 16 16 16 16 17 16 16 16 16 17 17 17 16 16 16 16 16 15 15 15 15 15 15 15 15 15 15 15 15 13 12 11 10 8 7 7 6 7 7 8 9 10 11 13 14 15 17 17 17 16 15 14 14 14 14 13 13 13 12 12 11 11 11 12 12 13 14 15 16 16 17 17 17 17 16 15
15 14 14 14 14 15 15 15 16 17 17 16 17 17 17 17 17 17 17 17 17 17 17 17 16 16 16 16 16 16 16 15 15 15 15 15 15 15 14 13 12 11 10 9 8 7 7 7 7 8 8 10 11 12 13 14 15 16 16 16 15 15 14 13 13 13 13 12 12 11 11 11 12 13 13 14 15 16 16 17 17 17 17 17 16 15
14 14 14 14 15 15 15 16 16 16 16 17 17 17 17 17 17 17 17 17 17 17 17 17 16 16 16 16 16 16 16 16 16 15 15 15 15 14 14 13 13 12 10 9 8 8 7 7 7 7 8 9 10 11 13 14 15 15 16 16 16 15 14 14 13 13 12 12 12 11 12 12 13 13 14 15 15 15 16 16 16 16 16 15 15 14
14 14 14 15 15 15 15 16 15 15 14 15 15 15 15 15 15 16 16 16 17 17 17 16 16 16 16 16 16 16 16 16 16 16 16 15 15 14 14 14 13 12 11 9 9 8 8 7 7 7 7 8 9 10 12 13 14 15 16 16 16 15 15 14 14 13 13 12 12 11 12 12 13 13 14 14 14 14 14 13 13 13 13 13 13 13
14 14 15 15 14 14 14 13 13 12 12 12 11 11 11 11 12 13 13 14 15 15 16 16 16 15 15 15 15 15 16 16 16 16 16 16 15 15 14 14 13 13 11 9 9 8 8 8 7 7 7 8 9 10 11 13 14 14 15 16 16 15 15 15 14 14 13 12 11 11 11 12 12 13 13 12 12 12 12 11 11 11 11 11 11 11
14 14 14 13 13 12 12 10 10 9 9 9 8 8 8 8 9 9 10 11 12 13 14 14 15 15 15 15 14 15 15 15 15 16 16 16 16 15 15 14 13 13 12 11 9 8 7 7 7 7 7 8 8 9 10 12 13 14 15 16 16 16 15 14 14 13 12 12 11 11 11 11 12 12 11 11 11 11 11 10 10 10 10 10 10 10
14 13 12 11 11 10 9 8 8 7 7 7 7 6 6 6 7 7 8 8 9 10 11 12 13 14 14 14 14 14 14 14 14 15 15 16 16 16 15 15 14 13 12 11 10 9 8 7 7 7 7 8 8 8 9 10 12 13 15 16 16 16 15 14 13 13 12 11 10 10 11 11 11 11 11 11 11 11 11 11 10 10 11 11 11 11
12 11 10 9 8 8 7 6 6 6 6 6 6 6 6 6 7 7 7 7 7 8 9 10 11 12 13 13 13 13 13 13 13 14 14 15 15 16 16 16 15 14 13 11 10 9 8 8 7 7 7 8 8 8 9 9 11 12 14 16 16 16 15 14 13 12 11 10 10 10 10 10 10 10 11 11 11 11 11 11 11 12 12 12 12 12
11 10 8 7 7 6 6 5 5 6 6 6 6 6 7 7 7 7 7 7 7 7 8 8 9 10 11 12 12 13 13 12 12 13 13 14 14 15 16 16 16 15 14 12 11 9 8 7 7 7 7 7 7 8 8 9 10 12 13 15 16 16 15 14 13 12 11 10 10 10 10 10 10 10 10 11 11 12 12 12 12 12 13 13 14 14
9 8 6 6 5 5 4 4 5 5 5 5 6 6 7 7 8 8 8 8 8 8 8 8 8 9 9 10 11 12 12 12 12 12 12 13 13 14 15 16 16 16 15 13 12 10 8 7 6 6 7 7 7 7 8 9 10 11 13 14 15 15 15 14 13 12 11 11 10 10 10 10 10 10 10 10 11 12 12 12 12 12 13 14 15 15
7 6 5 4 4 4 3 4 4 4 4 5 5 6 6 7 7 8 8 9 9 9 8 8 8 8 9 9 10 11 12 12 12 12 12 12 13 13 14 15 16 16 16 14 13 11 9 7 6 6 7 7 7 7 7 8 9 11 12 14 15 15 15 14 13 12 11 11 10 10 10 9 9 10 10 10 11 12 13 13 13 13 13 14 15 16
Height
5660 5659 5659 5659 5658 5656 5654 5654 5654 5652 5650 5649 5649 5649 5649 5649 5648 5648 5647 5645 5644 5643 5641 5640 5639 5637 5636 5635 5634 5633 5632 5631 5630 5629 5628 5628 5627 5626 5625 5624 5623 5622 5621 5620 5619 5619 5618 5616 5615 5614 5613 5612 5611 5610 5609 5608 5607 5606 5605 5604 5603 5602 5601 5600 5599 5598 5597 5596 5595 5594 5593 5592 5591 5590 5589 5589 5588 5587 5586 5585 5584 5584 5583 5583 5582 5582
5656 5655 5655 5654 5654 5652 5650 5649 5648 5648 5646 5645 5645 5645 5644 5644 5643 5642 5641 5640 5639 5637 5636 5634 5633 5632 5631 5630 5629 5628 5627 5626 5625 5624 5623 5622 5621 5620 5619 5619 5618 5617 5615 5614 5613 5612 5611 5610 5609 5608 5607 5605 5604 5603 5602 5601 5600 5599 5598 5597 5596 5595 5594 5593 5592 5591 5590 5589 5588 5586 5585 5584 5583 5582 5581 5581 5580 5579 5579 5578 5577 5576 5576 5575 5574 5574
5652 5652 5651 5650 5650 5648 5646 5644 5644 5644 5643 5641 5640 5640 5639 5638 5637 5636 5635 5634 5633 5632 5630 5629 5628 5626 5625 5624 5623 5622 5621 5620 5619 5619 5618 5617 5616 5615 5614 5613 5611 5610 5609 5608 5607 5605 5604 5603 5602 5601 5600 5599 5597 5596 5595 5594 5593 5592 5591 5589 5589 5587 5586 5585 5584 5583 5582 5581 5580 5579 5578 5577 5575 5574 5574 5573 5572 5571 5571 5570 5569 5569 5568 5567 5566 5566
5649 5647 5646 5646 5645 5644 5641 5640 5639 5639 5638 5637 5635 5634 5634 5633 5631 5630 5629 5629 5627 5626 5625 5624 5622 5621 5619 5618 5617 5616 5615 5614 5614 5613 5612 5610 5609 5609 5608 5606 5605 5604 5603 5601 5600 5599 5598 5596 5595 5594 5593 5592 5590 5589 5588 5587 5585 5584 5583 5582 5581 5580 5579 5578 5576 5575 5574 5573 5572 5571 5570 5569 5568 5567 5566 5565 5564 5563 5562 5562 5561 5560 5559 5559 5558 5557
5644 5643 5641 5641 5640 5639 5637 5636 5634 5633 5632 5632 5631 5629 5628 5627 5626 5625 5624 5623 5622 5621 5619 5618 5617 5615 5614 5612 5611 5611 5610 5609 5608 5607 5605 5604 5603 5602 5601 5600 5599 5597 5596 5595 5593 5592 5591 5589 5588 5587 5586 5584 5583 5581 5580 5579 5578 5576 5575 5574 5573 5572 5571 5569 5569 5567 5566 5565 5564 5563 5562 5561 5560 5559 5558 5557 5556 5555 5554 5553 5552 5551 5550 5549 5549 5548
5639 5638 5637 5636 5635 5633 5632 5631 5630 5629 5628 5627 5626 5625 5624 5622 5621 5620 5619 5618 5617 5615 5614 5613 5611 5609 5608 5607 5605 5605 5604 5603 5602 5600 5599 5598 5597 5596 5595 5593 5592 5591 5589 5588 5586 5585 5584 5582 5581 5579 5578 5577 5575 5574 5572 5571 5570 5569 5567 5566 5565 5564 5563 5562 5560 5559 5558 5557 5556 5555 5554 5553 5552 5551 5549 5549 5547 5546 5545 5544 5543 5542 5541 5540 5539 5538
5633 5633 5632 5631 5630 5629 5628 5626 5625 5624 5624 5622 5621 5620 5619 5618 5616 5615 5614 5613 5612 5610 5609 5607 5606 5604 5602 5601 5599 5599 5598 5597 5596 5594 5593 5592 5591 5589 5588 5586 5585 5584 5582 5580 5579 5578 5576 5574 5573 5572 5570 5569 5567 5566 5564 5563 5562 5560 5559 5558 5557 5556 5554 5554 5552 5551 5550 5549 5548 5547 5545 5544 5543 5542 5541 5540 5539 5537 5536 5535 5534 5533 5532 5531 5530 5529
5628 5628 5628 5627 5626 5624 5623 5622 5621 5620 5619 5618 5617 5615 5614 5613 5612 5610 5609 5608 5607 5605 5604 5602 5600 5599 5597 5595 5594 5593 5592 5591 5590 5588 5587 5585 5584 5582 5580 5579 5578 5576 5574 5573 5571 5570 5568 5567 5565 5564 5563 5561 5559 5558 5557 5555 5554 5553 5551 5550 5549 5548 5547 5545 5544 5543 5542 5540 5539 5538 5537 5535 5534 5533 5532 5531 5530 5529 5527 5526 5525 5524 5523 5522 5520 5519
5624 5623 5623 5623 5622 5620 5619 5617 5616 5616 5615 5613 5612 5611 5610 5608 5607 5606 5605 5603 5602 5600 5599 5597 5595 5593 5590 5589 5588 5586 5585 5585 5584 5582 5580 5578 5576 5575 5573 5571 5570 5568 5567 5565 5564 5562 5560 5559 5558 5556 5554 5553 5551 5550 5549 5547 5546 5544 5543 5542 5541 5539 5538 5537 5536 5534 5533 5532 5531 5529 5528 5527 5526 5524 5523 5522 5521 5520 5519 5517 5516 5515 5514 5513 5512 5511
5620 5619 5618 5618 5617 5616 5614 5613 5612 5611 5610 5609 5607 5606 5605 5604 5602 5601 5600 5598 5597 5595 5594 5592 5589 5587 5584 5583 5581 5580 5579 5578 5577 5575 5574 5571 5569 5567 5565 5564 5562 5561 5559 5557 5556 5554 5552 5551 5549 5548 5546 5544 5543 5541 5540 5539 5538 5536 5535 5534 5532 5531 5530 5529 5527 5526 5524 5523 5522 5521 5519 5518 5517 5516 5515 5514 5512 5511 5510 5509 5508 5507 5506 5505 5504 5503
5616 5615 5614 5613 5612 5611 5610 5609 5607 5606 5606 5604 5603 5601 5600 5599 5598 5596 5594 5592 5591 5589 5588 5586 5584 5581 5579 5576 5575 5574 5573 5571 5570 5569 5567 5564 5562 5560 5558 5556 5555 5553 5552 5549 5548 5546 5544 5542 5541 5539 5538 5536 5534 5533 5531 5530 5529 5528 5526 5525 5524 5523 5521 5520 5519 5517 5516 5514 5514 5512 5511 5510 5509 5508 5506 5505 5504 5503 5502 5501 5500 5499 5499 5498 5497 5497
5612 5611 5610 5609 5608 5607 5606 5605 5603 5602 5601 5599 5598 5596 5595 5594 5593 5591 5588 5586 5584 5583 5582 5579 5577 5575 5573 5570 5568 5567 5567 5565 5564 5562 5560 5558 5555 5553 5551 5549 5547 5546 5544 5542 5539 5537 5535 5534 5532 5530 5529 5527 5525 5524 5523 5522 5520 5519 5518 5517 5515 5514 5513 5512 5510 5509 5508 5506 5505 5504 5503 5502 5501 5500 5499 5498 5497 5496 5495 5494 5494 5493 5493 5492 5491 5491
5608 5607 5606 5605 5604 5603 5601 5600 5599 5597 5596 5595 5593 5591 5589 5589 5587 5586 5583 5581 5579 5577 5576 5573 5571 5569 5567 5564 5562 5561 5560 5559 5557 5555 5553 5550 5548 5545 5543 5541 5540 5538 5536 5534 5531 5529 5527 5525 5524 5522 5520 5518 5517 5515 5514 5513 5512 5511 5510 5509 5507 5506 5505 5504 5502 5501 5500 5499 5498 5496 5495 5495 5494 5493 5492 5491 5491 5490 5489 5489 5488 5487 5487 5486 5486 5485
5604 5603 5602 5601 5599 5598 5597 5595 5594 5592 5591 5590 5589 5586 5584 5583 5581 5579 5578 5575 5574 5572 5570 5567 5565 5562 5560 5558 5556 5554 5554 5552 5550 5549 5547 5544 5540 5538 5536 5534 5532 5530 5528 5526 5523 5520 5518 5517 5515 5513 5511 5509 5508 5507 5506 5505 5504 5503 5502 5501 5499 5498 5497 5496 5495 5494 5493 5492 5491 5490 5489 5488 5488 5487 5486 5486 5485 5484 5484 5483 5483 5482 5482 5481 5481 5480
5600 5599 5598 5596 5594 5593 5592 5590 5589 5587 5585 5584 5583 5581 5579 5577 5575 5574 5572 5569 5567 5566 5564 5562 5559 5556 5554 5551 5549 5548 5547 5545 5544 5542 5540 5536 5533 5530 5529 5527 5525 5522 5520 5518 5515 5512 5510 5509 5507 5505 5503 5501 5500 5499 5498 5497 5497 5495 5494 5493 5492 5491 5490 5489 5488 5487 5486 5485 5485 5484 5484 5483 5482 5482 5481 5481 5480 5479 5479 5479 5478 5478 5477 5476 5476 5475
5596 5595 5593 5591 5589 5588 5587 5586 5584 5582 5580 5579 5577 5575 5574 5571 5569 5568 5566 5563 5561 5559 5557 5555 5553 5550 5547 5544 5543 5541 5540 5539 5537 5535 5534 5529 5525 5522 5521 5521 5518 5515 5512 5510 5508 5505 5503 5501 5499 5497 5495 5494 5493 5492 5491 5491 5490 5489 5488 5487 5486 5485 5484 5483 5482 5482 5481 5480 5480 5479 5479 5478 5478 5477 5476 5476 5475 5475 5474 5474 5473 5473 5472 5472 5471 5470
5591 5590 5588 5587 5585 5583 5582 5581 5579 5577 5575 5573 5571 5569 5568 5566 5564 5562 5560 5557 5555 5553 5550 5549 5546 5544 5541 5538 5535 5534 5534 5533 5530 5528 5526 5523 5518 5514 5513 5514 5511 5508 5504 5502 5500 5498 5496 5494 5492 5490 5489 5488 5487 5486 5485 5485 5484 5483 5482 5481 5480 5479 5479 5478 5478 5477 5476 5476 5475 5475 5474 5474 5473 5472 5472 5471 5471 5470 5470 5469 5469 5468 5468 5467 5466 5465
5587 5585 5584 5582 5580 5578 5577 5575 5573 5571 5569 5568 5566 5564 5562 5560 5558 5556 5554 5551 5549 5546 5544 5542 5540 5538 5535 5532 5529 5526 5527 5526 5524 5521 5519 5516 5511 5507 5506 5506 5504 5501 5497 5495 5493 5491 5489 5488 5486 5484 5483 5482 5481 5481 5480 5480 5479 5478 5477 5477 5476 5475 5474 5474 5473 5473 5472 5471 5471 5470 5470 5469 5469 5468 5467 5467 5466 5466 5465 5465 5464 5464 5463 5462 5462 5461
5582 5581 5579 5577 5575 5573 5571 5569 5568 5566 5564 5562 5560 5559 5556 5554 5552 5550 5547 5545 5542 5540 5537 5535 5533 5530 5528 5526 5523 5520 5519 5519 5517 5514 5512 5509 5505 5501 5499 5499 5497 5494 5491 5489 5487 5485 5484 5482 5480 5479 5478 5477 5477 5476 5476 5475 5474 5474 5473 5472 5472 5471 5470 5470 5469 5469 5468 5467 5467 5466 5465 5465 5464 5464 5463 5463 5462 5462 5461 5461 5460 5459 5459 5458 5457 5456
5577 5576 5574 5572 5570 5568 5566 5564 5563 5561 5559 5557 5555 5553 5550 5548 5546 5544 5541 5538 5536 5533 5531 5529 5526 5523 5521 5520 5517 5514 5513 5513 5511 5508 5505 5502 5499 5495 5493 5493 5492 5489 5486 5484 5482 5480 5479 5477 5476 5474 5474 5474 5473 5472 5472 5471 5471 5470 5469 5469 5468 5467 5466 5466 5465 5464 5464 5463 5462 5462 5461 5460 5460 5460 5459 5459 5458 5458 5457 5457 5456 5455 5454 5453 5452 5451
5572 5571 5569 5568 5566 5563 5561 5559 5558 5555 5553 5551 5549 5547 5544 5542 5539 5537 5534 5532 5529 5527 5524 5522 5519 5517 5515 5514 5511 5509 5507 5506 5505 5503 5499 5496 5493 5490 5488 5488 5487 5484 5481 5479 5477 5476 5475 5474 5472 5471 5470 5470 5469 5469 5468 5468 5467 5466 5465 5465 5464 5463 5463 5462 5461 5460 5459 5459 5458 5458 5457 5456 5456 5456 5455 5455 5454 5454 5453 5453 5452 5451 5450 5449 5448 5446
5568 5566 5564 5563 5561 5559 5556 5554 5552 5550 5548 5545 5543 5540 5538 5536 5533 5530 5528 5525 5523 5521 5518 5516 5513 5511 5509 5508 5506 5503 5501 5501 5499 5498 5494 5492 5488 5485 5483 5483 5483 5480 5478 5475 5474 5472 5471 5470 5469 5468 5467 5466 5466 5465 5464 5464 5463 5463 5462 5461 5460 5459 5459 5458 5457 5456 5456 5455 5454 5454 5453 5453 5452 5452 5451 5451 5450 5450 5449 5448 5447 5446 5445 5444 5443 5442
5564 5561 5559 5558 5556 5553 5551 5549 5546 5544 5542 5539 5537 5534 5531 5529 5526 5524 5521 5519 5517 5515 5513 5510 5508 5505 5504 5503 5501 5499 5497 5495 5494 5492 5490 5488 5484 5481 5479 5479 5479 5477 5474 5472 5471 5469 5468 5466 5465 5465 5464 5463 5463 5462 5461 5460 5460 5459 5458 5458 5457 5456 5455 5454 5453 5453 5452 5451 5450 5450 5449 5449 5448 5448 5447 5447 5446 5445 5445 5444 5443 5442 5441 5440 5439 5438
5559 5557 5554 5552 5550 5548 5545 5543 5540 5538 5535 5533 5530 5528 5525 5523 5520 5518 5516 5514 5512 5509 5507 5505 5503 5501 5499 5497 5496 5494 5492 5491 5489 5488 5486 5484 5481 5478 5477 5476 5476 5474 5471 5469 5468 5467 5465 5464 5463 5462 5461 5460 5459 5459 5458 5457 5456 5455 5454 5454 5453 5452 5451 5450 5450 5449 5448 5448 5447 5446 5446 5445 5444 5444 5443 5443 5442 5441 5440 5439 5439 5438 5437 5436 5434 5433
5554 5552 5549 5547 5544 5542 5539 5537 5534 5532 5530 5527 5525 5522 5520 5518 5515 5513 5511 5509 5507 5504 5502 5500 5498 5496 5494 5493 5492 5490 5488 5487 5486 5484 5483 5480 5478 5475 5474 5474 5473 5472 5469 5467 5466 5464 5463 5461 5460 5459 5458 5457 5456 5455 5454 5453 5453 5452 5451 5450 5449 5448 5448 5447 5446 5445 5445 5444 5444 5443 5442 5441 5441 5440 5439 5439 5438 5437 5436 5435 5434 5433 5432 5431 5430 5429
5549 5546 5544 5541 5539 5536 5534 5531 5529 5527 5524 5522 5520 5518 5515 5513 5510 5508 5506 5504 5502 5500 5498 5496 5494 5492 5490 5489 5488 5486 5484 5483 5482 5481 5479 5478 5475 5473 5471 5471 5471 5470 5468 5465 5463 5462 5460 5459 5457 5456 5455 5454 5453 5452 5450 5449 5449 5448 5447 5446 5445 5444 5444 5443 5443 5442 5441 5441 5440 5439 5439 5438 5437 5436 5435 5434 5434 5433 5432 5431 5429 5429 5428 5427 5426 5425
5544 5541 5539 5536 5534 5531 5529 5527 5524 5522 5520 5518 5515 5513 5511 5509 5506 5504 5502 5500 5499 5497 5494 5492 5490 5488 5486 5485 5484 5483 5482 5480 5479 5478 5476 5475 5473 5471 5469 5469 5468 5467 5466 5463 5461 5459 5458 5456 5454 5453 5452 5450 5449 5448 5447 5446 5445 5444 5443 5442 5441 5441 5440 5439 5439 5438 5438 5437 5436 5435 5435 5434 5433 5432 5431 5430 5429 5429 5427 5426 5425 5424 5424 5423 5422 5420
5539 5536 5534 5532 5529 5527 5524 5522 5520 5518 5516 5513 5511 5509 5506 5504 5503 5500 5498 5496 5495 5493 5491 5489 5487 5485 5483 5482 5480 5480 5479 5478 5476 5475 5474 5472 5470 5468 5467 5466 5465 5464 5464 5461 5459 5457 5455 5453 5451 5450 5449 5447 5445 5444 5443 5442 5441 5440 5439 5439 5438 5437 5436 5436 5435 5434 5434 5433 5432 5431 5431 5430 5429 5428 5428 5427 5425 5424 5423 5422 5421 5420 5419 5419 5417 5416
5534 5532 5530 5528 5525 5523 5520 5518 5515 5513 5511 5509 5507 5504 5502 5500 5499 5497 5494 5492 5491 5489 5487 5485 5484 5482 5481 5479 5477 5476 5476 5475 5474 5472 5471 5469 5468 5466 5465 5464 5462 5461 5461 5459 5457 5454 5452 5450 5448 5447 5445 5444 5442 5441 5439 5439 5438 5437 5436 5435 5434 5433 5433 5432 5431 5431 5430 5429 5429 5428 5427 5426 5425 5424 5424 5423 5422 5420 5419 5418 5417 5416 5415 5414 5413 5412
5530 5528 5526 5523 5521 5518 5516 5513 5511 5509 5507 5505 5503 5501 5499 5497 5495 5493 5491 5489 5488 5486 5484 5482 5481 5479 5478 5476 5475 5473 5472 5472 5471 5470 5468 5467 5464 5463 5462 5460 5459 5458 5458 5457 5455 5453 5450 5448 5445 5444 5442 5440 5439 5437 5436 5435 5434 5433 5432 5431 5430 5430 5429 5428 5428 5427 5426 5425 5425 5424 5423 5422 5421 5420 5419 5419 5417 5416 5415 5414 5413 5412 5411 5410 5409 5408
5526 5524 5521 5519 5516 5514 5512 5509 5507 5505 5503 5501 5499 5497 5495 5493 5492 5490 5488 5486 5485 5483 5481 5479 5478 5477 5475 5474 5472 5470 5469 5469 5468 5467 5466 5464 5462 5460 5459 5458 5456 5455 5454 5454 5452 5451 5449 5446 5444 5441 5439 5437 5435 5434 5433 5432 5431 5430 5429 5428 5427 5426 5425 5425 5424 5424 5423 5422 5421 5420 5419 5419 5418 5417 5415 5414 5413 5412 5411 5410 5409 5408 5407 5406 5405 5404
5522 5520 5517 5515 5513 5510 5508 5506 5504 5502 5499 5498 5496 5494 5492 5490 5489 5487 5485 5484 5482 5480 5479 5477 5475 5474 5472 5471 5469 5468 5466 5465 5464 5464 5463 5461 5459 5457 5456 5455 5453 5452 5451 5450 5449 5448 5447 5444 5442 5439 5437 5434 5433 5431 5430 5429 5428 5427 5426 5425 5424 5423 5422 5421 5421 5420 5419 5418 5417 5416 5415 5414 5414 5413 5411 5410 5409 5408 5407 5406 5404 5403 5402 5401 5400 5399
5518 5516 5514 5511 5509 5507 5504 5503 5500 5499 5497 5495 5493 5491 5489 5488 5486 5484 5482 5481 5479 5478 5476 5474 5472 5471 5469 5468 5466 5465 5463 5462 5461 5460 5459 5458 5456 5454 5453 5452 5450 5449 5448 5447 5446 5445 5444 5442 5440 5438 5436 5433 5431 5429 5427 5426 5425 5424 5423 5422 5421 5420 5419 5418 5417 5417 5416 5415 5414 5413 5412 5411 5410 5409 5408 5406 5405 5404 5403 5401 5400 5399 5398 5397 5396 5395
5514 5512 5509 5508 5505 5503 5501 5499 5497 5495 5494 5492 5490 5488 5486 5485 5483 5481 5479 5478 5476 5474 5473 5471 5469 5468 5466 5464 5463 5461 5460 5459 5458 5456 5455 5454 5453 5451 5450 5449 5447 5446 5445 5444 5443 5442 5441 5439 5438 5436 5434 5432 5429 5427 5425 5424 5423 5421 5420 5419 5418 5417 5416 5415 5414 5414 5413 5412 5411 5409 5408 5407 5406 5405 5404 5402 5401 5400 5399 5397 5396 5395 5394 5393 5392 5391
5510 5508 5506 5504 5502 5500 5498 5496 5494 5493 5491 5489 5487 5485 5484 5482 5480 5478 5476 5474 5473 5471 5469 5468 5466 5464 5463 5461 5459 5458 5456 5455 5454 5453 5452 5451 5449 5449 5447 5446 5445 5444 5442 5441 5440 5439 5438 5436 5435 5434 5432 5430 5428 5425 5423 5421 5420 5419 5418 5417 5415 5414 5414 5413 5412 5411 5410 5409 5408 5406 5405 5404 5402 5401 5400 5399 5397 5396 5394 5393 5392 5391 5390 5389 5388 5387
5507 5504 5503 5501 5499 5497 5495 5493 5491 5489 5488 5486 5484 5482 5480 5479 5477 5475 5473 5471 5470 5468 5466 5464 5463 5461 5459 5458 5456 5455 5453 5451 5450 5449 5448 5447 5446 5445 5444 5443 5442 5441 5440 5439 5438 5436 5435 5434 5432 5431 5429 5427 5425 5423 5421 5419 5418 5416 5415 5414 5413 5412 5410 5409 5409 5408 5407 5406 5404 5403 5402 5400 5399 5398 5397 5395 5394 5392 5391 5389 5388 5387 5386 5385 5384 5383
5503 5501 5499 5497 5496 5494 5492 5490 5488 5486 5485 5483 5481 5479 5477 5476 5474 5472 5470 5469 5467 5465 5463 5461 5459 5458 5456 5455 5453 5452 5450 5448 5447 5446 5445 5444 5443 5442 5441 5440 5439 5438 5437 5436 5434 5434 5432 5431 5429 5428 5426 5424 5423 5421 5419 5417 5416 5414 5413 5411 5410 5409 5407 5406 5405 5404 5404 5403 5401 5400 5399 5397 5396 5395 5394 5392 5391 5389 5388 5386 5385 5383 5382 5381 5380 5379
5500 5498 5496 5494 5493 5491 5489 5487 5485 5484 5482 5480 5478 5476 5474 5473 5471 5469 5467 5465 5464 5462 5460 5458 5457 5455 5453 5452 5450 5449 5447 5445 5444 5443 5442 5441 5440 5439 5438 5437 5436 5435 5434 5433 5432 5430 5429 5428 5426 5425 5423 5422 5420 5418 5416 5415 5414 5412 5411 5409 5407 5406 5404 5403 5402 5401 5400 5399 5398 5397 5395 5394 5393 5392 5391 5389 5388 5386 5384 5383 5381 5380 5379 5378 5377 5376
5497 5495 5493 5491 5489 5488 5486 5484 5482 5480 5479 5477 5475 5474 5472 5470 5468 5466 5465 5463 5461 5459 5458 5456 5454 5452 5450 5449 5447 5446 5444 5443 5441 5440 5439 5438 5437 5436 5435 5434 5433 5432 5431 5429 5429 5428 5426 5425 5423 5422 5420 5419 5417 5416 5414 5412 5411 5409 5408 5407 5405 5403 5401 5400 5399 5398 5397 5396 5395 5394 5393 5391 5390 5389 5388 5386 5385 5383 5382 5380 5379 5377 5376 5375 5374 5373
5494 5492 5490 5488 5487 5485 5483 5481 5479 5478 5476 5474 5473 5471 5469 5467 5466 5464 5462 5460 5459 5457 5455 5453 5451 5449 5448 5446 5444 5443 5442 5440 5439 5437 5436 5435 5434 5433 5432 5431 5430 5429 5428 5426 5425 5424 5423 5421 5420 5419 5417 5415 5414 5413 5411 5409 5408 5406 5405 5404 5403 5401 5399 5397 5396 5395 5394 5393 5392 5391 5390 5389 5388 5386 5385 5383 5382 5380 5379 5377 5376 5374 5373 5372 5371 5370
5490 5489 5487 5485 5484 5482 5480 5479 5477 5475 5474 5472 5470 5469 5467 5465 5463 5461 5460 5458 5456 5454 5453 5451 5449 5447 5445 5444 5442 5440 5439 5437 5436 5434 5433 5432 5431 5430 5429 5428 5427 5426 5424 5424 5422 5421 5420 5418 5417 5415 5414 5412 5411 5409 5408 5406 5405 5403 5402 5401 5400 5399 5397 5395 5393 5392 5391 5390 5389 5388 5387 5386 5385 5384 5382 5380 5379 5377 5375 5374 5373 5372 5371 5370 5369 5368
5488 5486 5484 5483 5481 5479 5478 5476 5474 5473 5471 5470 5468 5466 5464 5463 5461 5459 5457 5456 5454 5452 5450 5449 5447 5445 5443 5441 5439 5438 5436 5435 5433 5432 5430 5429 5428 5427 5426 5425 5424 5423 5422 5421 5419 5418 5417 5415 5414 5412 5411 5409 5408 5406 5405 5404 5402 5400 5399 5398 5397 5396 5395 5393 5391 5389 5388 5387 5386 5385 5384 5383 5382 5381 5379 5378 5376 5374 5373 5371 5370 5369 5368 5367 5366 5365
5485 5484 5482 5480 5479 5477 5475 5474 5472 5471 5469 5468 5466 5464 5462 5460 5459 5457 5455 5454 5452 5450 5448 5446 5445 5443 5441 5439 5437 5435 5434 5432 5431 5429 5428 5427 5425 5424 5423 5422 5421 5420 5419 5418 5417 5415 5414 5413 5411 5409 5408 5406 5405 5403 5402 5400 5399 5398 5396 5395 5394 5393 5392 5391 5389 5388 5386 5385 5384 5382 5381 5380 5379 5378 5377 5375 5373 5371 5370 5369 5367 5366 5365 5364 5363 5362
5483 5481 5479 5478 5476 5475 5473 5472 5470 5469 5467 5466 5464 5462 5460 5458 5457 5455 5453 5451 5449 5448 5446 5444 5443 5441 5439 5437 5435 5434 5431 5429 5428 5427 5425 5424 5423 5422 5420 5419 5418 5417 5416 5415 5414 5413 5411 5410 5408 5406 5405 5403 5402 5400 5399 5398 5396 5395 5394 5392 5391 5390 5389 5388 5387 5385 5384 5383 5381 5380 5379 5377 5376 5375 5374 5372 5370 5369 5367 5366 5364 5364 5362 5361 5360 5359
5480 5479 5477 5476 5474 5473 5471 5470 5469 5467 5465 5464 5462 5460 5458 5456 5454 5453 5451 5449 5448 5446 5444 5442 5440 5439 5437 5435 5434 5432 5429 5428 5426 5424 5423 5421 5420 5419 5418 5416 5415 5414 5413 5412 5411 5410 5408 5407 5405 5404 5402 5400 5399 5398 5396 5394 5394 5392 5391 5390 5389 5388 5386 5385 5384 5383 5382 5380 5379 5377 5376 5375 5374 5373 5371 5370 5368 5366 5364 5363 5362 5361 5360 5359 5357 5356
5478 5477 5475 5474 5472 5471 5469 5468 5466 5464 5463 5461 5460 5458 5456 5454 5453 5451 5449 5448 5446 5444 5442 5440 5439 5437 5434 5433 5431 5429 5428 5426 5424 5422 5420 5419 5417 5416 5414 5414 5412 5411 5410 5409 5408 5407 5405 5404 5402 5401 5399 5398 5396 5395 5393 5392 5390 5389 5389 5388 5387 5385 5384 5382 5381 5380 5379 5378 5376 5375 5374 5372 5371 5370 5369 5368 5366 5364 5362 5360 5359 5358 5357 5356 5355 5354
5476 5475 5473 5472 5470 5469 5467 5466 5464 5463 5461 5459 5458 5456 5454 5453 5451 5449 5447 5446 5444 5442 5440 5438 5437 5435 5433 5431 5429 5427 5425 5424 5422 5420 5418 5416 5415 5413 5412 5411 5409 5408 5407 5406 5405 5404 5403 5401 5399 5398 5396 5395 5394 5392 5391 5389 5388 5387 5386 5385 5384 5383 5382 5380 5379 5377 5376 5374 5374 5372 5371 5369 5369 5368 5366 5365 5364 5361 5359 5358 5356 5355 5354 5353 5352 5351
5474 5472 5471 5469 5468 5467 5465 5464 5462 5460 5459 5457 5456 5454 5452 5451 5449 5447 5445 5444 5442 5440 5438 5436 5434 5432 5430 5429 5427 5425 5423 5421 5419 5418 5416 5414 5412 5411 5409 5408 5407 5405 5404 5404 5402 5401 5400 5398 5397 5395 5393 5392 5390 5389 5388 5387 5385 5384 5383 5382 5381 5380 5379 5378 5376 5374 5373 5372 5370 5369 5368 5367 5366 5365 5364 5362 5361 5359 5357 5355 5354 5352 5351 5351 5350 5349
5471 5470 5469 5467 5466 5464 5463 5461 5460 5459 5457 5455 5454 5452 5450 5449 5447 5445 5443 5441 5439 5438 5436 5434 5432 5430 5428 5426 5424 5423 5421 5419 5417 5415 5414 5412 5410 5409 5407 5405 5404 5403 5402 5401 5400 5399 5397 5396 5394 5392 5390 5388 5387 5386 5385 5384 5383 5382 5381 5380 5379 5378 5376 5375 5374 5372 5370 5369 5368 5366 5365 5364 5363 5362 5361 5360 5358 5357 5355 5353 5351 5349 5349 5348 5347 5346
5469 5468 5466 5465 5464 5462 5461 5459 5458 5456 5455 5453 5452 5450 5448 5446 5444 5443 5441 5439 5437 5435 5434 5432 5430 5428 5426 5424 5422 5420 5419 5417 5415 5413 5411 5409 5408 5406 5404 5403 5402 5400 5399 5398 5397 5396 5395 5394 5392 5390 5388 5385 5384 5383 5382 5381 5380 5379 5378 5377 5376 5374 5373 5372 5371 5370 5368 5367 5365 5364 5363 5361 5360 5359 5359 5357 5356 5354 5353 5351 5349 5347 5346 5345 5344 5344
5467 5465 5464 5463 5461 5460 5458 5457 5455 5454 5452 5451 5449 5447 5446 5444 5442 5440 5438 5437 5435 5433 5431 5429 5428 5425 5424 5422 5420 5418 5416 5414 5412 5410 5409 5407 5405 5403 5402 5400 5399 5398 5396 5395 5394 5394 5393 5392 5390 5389 5386 5384 5381 5379 5378 5377 5376 5376 5375 5374 5373 5372 5370 5369 5369 5367 5366 5364 5363 5362 5360 5359 5358 5357 5356 5354 5353 5352 5350 5349 5346 5344 5343 5342 5341 5341